Вернуться в каталог

STARLINK-4196

АктивенСвязьVLEO
NORAD 52859·PAYLOAD·🇺🇸 United States

Запущен Jun 17, 2022 с Cape Canaveral Space Force Station

Loading…

Ближайшие Пролёты (ближайшие 24 часа)

TLE

СвежийSource: CelesTrak SupGP

Эпоха: Sep 14, 2026, 20:42 UTC

1 52859C 22062AF  26257.86298611  .00028555  00000+0  86654-3 0  2577
2 52859  53.1579 244.0539 0001239  87.2467 134.3925 15.33532422    15

Отслеживайте STARLINK-4196 в реальном времени с AllMySat

Download on the App Store